Weather reports worldwide

Advertisment
Seward, United States of America (70277): temperature & dewpoint: 13.02.2020 04:00:00 - 19.02.2020 04:00:00 (AKST)Seward, United States of America (70277): wind speed & gusts: 13.02.2020 04:00:00 - 19.02.2020 04:00:00 (AKST)Seward, United States of America (70277): wind direction: 13.02.2020 04:00:00 - 19.02.2020 04:00:00 (AKST)Seward, United States of America (70277): reduced air pressure: 13.02.2020 04:00:00 - 19.02.2020 04:00:00 (AKST)Seward, United States of America (70277): visibility: 13.02.2020 04:00:00 - 19.02.2020 04:00:00 (AKST)Seward, United States of America (70277): precipitation: 13.02.2020 04:00:00 - 19.02.2020 04:00:00 (AKST)
Date & Time tt [°C] td [°C] ff [km/h] ff [kn] fx [km/h] fx [kn] dd ppp [hPa] vv [km] rr [mm]
19.02.2020 04:00:00 1,1 -2,2 26 14 - - NNE 986,6 16 -
19.02.2020 03:00:00 1,7 -1,7 31 17 - - N 986,0 16 0,0
19.02.2020 02:00:00 1,1 -1,7 16 9 - - NNE 986,2 16 0,0
19.02.2020 01:00:00 3,3 -1,7 31 17 - - NNW 985,8 16 0,0
19.02.2020 00:00:00 2,2 -0,6 18 10 - - N 986,6 16 0,0
18.02.2020 23:00:00 2,8 -0,6 21 11 - - N 987,5 16 0,0
18.02.2020 22:00:00 2,2 0,0 24 13 - - NNW 988,2 16 0,3
18.02.2020 21:00:00 2,2 0,0 18 10 - - NNW 989,5 16 0,0
18.02.2020 20:00:00 2,2 0,0 21 11 - - NNW 990,8 16 0,0
18.02.2020 19:00:00 1,7 0,0 15 8 - - N 992,5 16 0,5
18.02.2020 18:00:00 1,7 0,0 13 7 - - N 993,7 16 0,5
18.02.2020 17:00:00 0,6 0,0 5 3 - - NNE 995,1 10 1,0
18.02.2020 16:00:00 0,6 0,0 0 0 - - N 996,6 4,8 0,5
18.02.2020 15:00:00 0,6 0,0 8 4 - - WNW 998,3 3,2 0,3
18.02.2020 14:00:00 1,1 0,6 0 0 - - N 999,5 6 0,5
18.02.2020 13:00:00 2,8 1,1 22 12 - - S 1000,7 4,8 2,5
18.02.2020 12:00:00 3,3 1,1 28 15 - - SSW 1001,6 6 2,5
18.02.2020 11:00:00 2,8 1,1 26 14 - - SSW 1002,4 6 3,3
18.02.2020 10:00:00 2,2 0,6 24 13 - - S 1003,0 4,8 4,1
18.02.2020 09:00:00 2,8 0,6 29 16 50 27 SSW 1002,8 8 3,3
18.02.2020 08:00:00 3,3 1,1 28 15 - - S 1002,8 10 2,8
18.02.2020 07:00:00 3,3 0,6 24 13 - - S 1003,0 10 3,0
18.02.2020 06:00:00 2,8 0,6 26 14 55 30 S 1003,3 6 3,6
18.02.2020 05:00:00 3,9 1,7 24 13 - - S 1003,5 10 1,3
18.02.2020 04:00:00 5,0 3,3 22 12 52 28 SSE 1003,6 16 0,3
18.02.2020 03:00:00 5,0 1,1 16 9 50 27 S 1004,1 16 0,3
18.02.2020 02:00:00 4,4 3,3 26 14 57 31 SSE 1004,3 10 0,5
18.02.2020 01:00:00 5,0 1,7 37 20 57 31 SSE 1004,9 10 0,0
18.02.2020 00:00:00 4,4 1,1 24 13 54 29 S 1006,2 8 0,8
17.02.2020 23:00:00 4,4 1,7 22 12 61 33 S 1006,0 8 0,3
17.02.2020 22:00:00 4,4 3,9 24 13 50 27 S 1006,4 10 0,8
17.02.2020 21:00:00 4,4 3,9 31 17 63 34 S 1007,4 13 1,0
17.02.2020 20:00:00 4,4 2,2 42 23 70 38 S 1007,6 13 0,5
17.02.2020 19:00:00 3,9 2,2 44 24 70 38 SSW 1007,3 11 0,3
17.02.2020 18:00:00 4,4 3,3 41 22 54 29 SSW 1007,0 16 0,0
17.02.2020 17:00:00 3,9 1,7 42 23 61 33 SSW 1008,9 8 0,0
17.02.2020 16:00:00 4,4 1,1 24 13 - - S 1009,4 16 -
17.02.2020 15:00:00 2,2 0,6 - - - - - 1010,4 16 -
17.02.2020 14:00:00 1,7 -0,6 - - - - - 1011,5 16 -
17.02.2020 13:00:00 1,7 -0,6 - - - - - 1011,8 16 0,0
17.02.2020 12:00:00 0,6 0,0 - - - - - 1012,2 - 0,0
17.02.2020 11:00:00 0,0 -1,1 - - - - - 1012,1 16 0,5
17.02.2020 10:00:00 0,0 -1,1 8 4 - - SW 1012,4 1,2 0,5
17.02.2020 09:00:00 -0,6 -1,7 5 3 - - S 1012,2 2,0 0,3
17.02.2020 08:00:00 -1,1 -1,7 0 0 - - N 1012,5 2,8 0,3
17.02.2020 07:00:00 -0,6 -1,7 0 0 - - N 1012,6 4,8 0,0
17.02.2020 06:00:00 -0,6 -2,2 0 0 - - N 1013,1 4,0 0,3
17.02.2020 05:00:00 -1,7 -2,8 5 3 - - NW 1013,4 4,0 0,0
17.02.2020 04:00:00 -2,2 -3,3 0 0 - - N 1014,1 3,2 0,3
17.02.2020 03:00:00 -2,2 -2,8 0 0 - - N 1014,9 16 0,0
17.02.2020 02:00:00 -2,8 -3,9 0 0 - - N 1015,0 6 0,0
17.02.2020 01:00:00 -3,3 -4,4 0 0 - - N 1015,2 4,8 0,0
17.02.2020 00:00:00 -3,3 -5,0 0 0 - - N 1015,3 2,8 0,0
16.02.2020 23:00:00 -2,8 -5,0 0 0 - - N 1015,2 6 0,0
16.02.2020 22:00:00 -2,8 -6,7 0 0 - - N 1014,9 8 0,0
16.02.2020 21:00:00 -3,9 -7,8 0 0 - - N 1014,6 16 -
16.02.2020 20:00:00 -3,9 -8,9 0 0 - - N 1014,7 16 -
16.02.2020 19:00:00 -3,9 -9,4 0 0 - - N 1014,6 16 -
16.02.2020 18:00:00 -3,9 -10,0 9 5 - - NNW 1014,4 16 -
16.02.2020 17:00:00 -3,9 -11,1 13 7 - - N 1014,3 16 -
16.02.2020 16:00:00 -3,9 -11,1 11 6 - - N 1014,2 16 -
16.02.2020 15:00:00 -2,8 -11,1 9 5 - - N 1014,2 16 -
16.02.2020 14:00:00 -3,3 -10,6 13 7 - - NNE 1013,3 16 -
16.02.2020 13:00:00 -5,0 -11,7 21 11 - - NNE 1013,1 16 -
16.02.2020 12:00:00 -6,1 -12,8 24 13 - - NNE 1013,0 16 -
16.02.2020 11:00:00 -8,3 -13,9 15 8 - - N 1013,1 16 -
16.02.2020 10:00:00 -8,9 -13,9 26 14 - - NNE 1012,3 16 -
16.02.2020 09:00:00 -10,0 -14,4 26 14 - - N 1011,8 16 -
16.02.2020 08:00:00 -10,0 -13,9 31 17 - - NNE 1011,0 16 -
16.02.2020 07:00:00 -8,9 -13,3 29 16 55 30 N 1010,7 16 -
16.02.2020 06:00:00 -8,3 -13,3 31 17 52 28 N 1010,0 16 -
16.02.2020 05:00:00 -8,3 -12,8 29 16 50 27 NNE 1009,9 16 -
16.02.2020 04:00:00 -8,3 -12,8 28 15 50 27 NNE 1009,5 16 -
16.02.2020 03:00:00 -7,2 -12,2 26 14 - - N 1008,9 16 -
16.02.2020 02:00:00 -8,3 -12,8 29 16 - - NNE 1008,2 16 -
16.02.2020 01:00:00 -6,7 -11,7 29 16 52 28 N 1007,9 16 -
16.02.2020 00:00:00 -6,7 -11,7 26 14 - - NNE 1007,3 16 -
15.02.2020 23:00:00 -6,7 -11,1 29 16 52 28 N 1007,0 16 -
15.02.2020 22:00:00 -6,7 -11,7 28 15 48 26 N 1006,0 16 -
15.02.2020 21:00:00 -6,7 -11,7 31 17 50 27 NNE 1005,5 16 -
15.02.2020 20:00:00 -6,1 -11,7 29 16 54 29 N 1005,2 16 -
15.02.2020 19:00:00 -6,7 -12,2 35 19 55 30 N 1004,5 16 -
15.02.2020 18:00:00 -5,6 -11,7 35 19 57 31 N 1004,0 16 -
15.02.2020 17:00:00 -4,4 -10,6 29 16 57 31 N 1003,4 16 -
15.02.2020 16:00:00 -3,9 -10,6 39 21 54 29 N 1002,7 16 -
15.02.2020 15:00:00 -2,8 -10,0 35 19 55 30 N 1002,4 16 -
15.02.2020 14:00:00 -3,3 -10,0 29 16 50 27 N 1002,1 16 -
15.02.2020 13:00:00 -5,6 -11,1 34 18 54 29 N 1002,0 16 -
15.02.2020 12:00:00 -6,7 -12,2 31 17 55 30 N 1001,6 16 -
15.02.2020 11:00:00 -7,8 -12,2 34 18 55 30 N 1001,7 16 0,0
15.02.2020 10:00:00 -8,3 -12,2 35 19 50 27 N 1001,4 13 0,0
15.02.2020 09:00:00 -8,9 -12,8 28 15 - - N 1001,0 16 -
15.02.2020 08:00:00 -8,9 -12,8 24 13 - - N 1000,9 16 -
15.02.2020 07:00:00 -8,9 -12,8 24 13 - - NNE 1000,9 16 -
15.02.2020 06:00:00 -8,9 -12,2 22 12 - - N 1001,1 16 -
15.02.2020 05:00:00 -8,3 -11,7 16 9 - - N 1001,1 16 -
15.02.2020 04:00:00 -7,8 -11,7 22 12 - - N 1001,2 16 0,0
15.02.2020 03:00:00 -7,8 -11,1 24 13 - - N 1001,5 16 -
15.02.2020 02:00:00 -6,7 -10,0 21 11 - - N 1001,6 16 -
15.02.2020 01:00:00 -6,7 -10,0 18 10 - - N 1001,7 16 -
15.02.2020 00:00:00 -6,1 -10,0 18 10 - - N 1001,5 16 -
14.02.2020 23:00:00 -6,1 -9,4 18 10 - - N 1001,6 16 -
14.02.2020 22:00:00 -5,6 -9,4 16 9 - - N 1001,8 16 -
14.02.2020 21:00:00 -5,0 -10,6 15 8 - - N 1001,8 16 -
14.02.2020 20:00:00 -3,9 -10,0 18 10 - - N 1001,6 16 -
14.02.2020 19:00:00 -3,9 -10,0 13 7 - - N 1001,4 16 -
14.02.2020 18:00:00 -3,3 -10,6 15 8 - - N 1001,2 16 -
14.02.2020 17:00:00 -2,8 -10,6 15 8 - - N 1001,5 16 -
14.02.2020 16:00:00 -2,8 -9,4 11 6 - - N 1001,6 16 -
14.02.2020 15:00:00 -2,8 -10,0 16 9 - - N 1002,1 16 -
14.02.2020 14:00:00 -3,9 -10,6 16 9 - - NNW 1002,3 16 -
14.02.2020 13:00:00 -5,6 -11,7 18 10 - - N 1002,3 16 -
14.02.2020 12:00:00 -7,2 -12,2 21 11 - - N 1002,5 16 -
14.02.2020 11:00:00 -7,8 -12,8 21 11 - - N 1002,2 16 -
14.02.2020 10:00:00 -8,3 -13,3 24 13 - - NNW 1002,2 16 -
14.02.2020 09:00:00 -8,9 -13,3 24 13 - - N 1002,5 16 -
14.02.2020 08:00:00 -10,0 -13,9 18 10 - - NNW 1002,7 16 -
14.02.2020 07:00:00 -10,0 -13,9 15 8 - - NNW 1003,2 16 -
14.02.2020 06:00:00 -10,0 -13,9 21 11 - - NNW 1003,8 16 -
14.02.2020 05:00:00 -11,1 -14,4 18 10 - - NNW 1004,5 16 -
14.02.2020 04:00:00 -10,6 -14,4 13 7 - - N 1005,1 16 -
14.02.2020 03:00:00 -9,4 -13,9 16 9 - - N 1005,5 16 -
14.02.2020 02:00:00 -10,0 -13,9 18 10 - - N 1006,2 16 -
14.02.2020 01:00:00 -10,0 -13,9 13 7 - - NNW 1006,8 16 -
14.02.2020 00:00:00 -8,9 -12,8 16 9 - - N 1007,0 16 -
13.02.2020 23:00:00 -7,8 -12,8 15 8 - - N 1007,5 16 -
13.02.2020 22:00:00 -7,2 -12,2 18 10 - - N 1007,8 16 -
13.02.2020 21:00:00 -6,7 -12,2 24 13 52 28 N 1007,6 16 -
13.02.2020 20:00:00 -6,1 -12,8 31 17 57 31 N 1008,1 16 -
13.02.2020 19:00:00 -4,4 -13,3 31 17 57 31 N 1008,5 16 -
13.02.2020 18:00:00 -4,4 -12,8 28 15 55 30 N 1008,3 16 -
13.02.2020 17:00:00 -3,3 -11,7 28 15 54 29 N 1008,5 16 -
13.02.2020 16:00:00 -1,7 -11,7 24 13 52 28 N 1008,5 16 -
13.02.2020 15:00:00 -1,1 -11,7 34 18 55 30 NNW 1008,6 16 -
13.02.2020 14:00:00 -1,1 -13,9 26 14 50 27 N 1008,2 16 -
13.02.2020 13:00:00 -1,1 -15,0 22 12 54 29 N 1008,9 16 -
13.02.2020 12:00:00 -1,1 -16,1 21 11 48 26 N 1008,9 16 -
13.02.2020 11:00:00 -1,7 -14,4 15 8 - - N 1008,2 16 -
13.02.2020 10:00:00 -1,7 -13,3 22 12 - - NNE 1007,4 16 -
13.02.2020 09:00:00 -2,2 -12,2 31 17 52 28 NNE 1006,5 16 -
13.02.2020 08:00:00 -2,2 -11,7 26 14 63 34 NNE 1005,9 16 -
13.02.2020 07:00:00 -1,1 -10,6 26 14 54 29 N 1005,7 16 -
13.02.2020 06:00:00 -1,7 -8,9 31 17 54 29 NE 1004,6 16 -
13.02.2020 05:00:00 -1,1 -8,3 39 21 52 28 NE 1003,6 16 -
13.02.2020 04:00:00 -1,7 -7,2 18 10 52 28 N 1002,9 16 -

tt = temperature
td = dewpoint
ff = wind speed
fx = gusts
dd = wind direction
ppp = reduced air pressure
vv = visibility
rr = precipitation

Next stations